Location: Wells
(51.2093°N, 2.6446°W)
Time: 11:52:53
(UTC+00:00)

AO-73 - Visible Passes

Search period start: 15 March 2026 00:00
Search period end: 25 March 2026 00:00
Orbit: 516 x 568 km, 97.8° (Epoch: 14 March)

Date Brightness Start Highest point End Pass type
(mag) Time Alt. Az. Time Alt. Az. Time Alt. Az.
15 Mar ? 04:04:16 10° NNE 04:08:06 79° ESE 04:08:39 62° S visible
15 Mar ? 05:40:18 10° NNW 05:42:06 13° WNW 05:43:54 10° W visible
16 Mar ? 03:57:34 10° NNE 04:01:23 66° ESE 04:02:02 54° SSE visible
16 Mar ? 05:33:18 10° NNW 05:35:29 15° WNW 05:37:36 10° W visible
17 Mar ? 03:50:54 10° NNE 03:54:39 55° E 03:55:25 45° SE visible
17 Mar ? 05:26:20 10° NNW 05:28:50 17° WNW 05:30:58 11° W visible
18 Mar ? 03:44:12 10° NNE 03:47:53 46° E 03:48:46 38° SE visible
18 Mar ? 05:19:25 10° NNW 05:22:10 19° WNW 05:24:19 13° W visible
19 Mar ? 03:37:30 10° NNE 03:41:06 39° E 03:42:06 32° SE visible
19 Mar ? 05:12:29 10° NNW 05:15:28 22° WNW 05:17:38 14° WSW visible
20 Mar ? 03:30:49 10° NNE 03:34:17 33° E 03:35:24 27° SE visible
20 Mar ? 05:05:35 10° N 05:08:44 25° WNW 05:10:57 15° WSW visible
21 Mar ? 03:24:08 10° NE 03:27:27 28° E 03:28:42 23° SE visible
21 Mar ? 04:58:41 10° N 05:02:00 29° WNW 05:04:15 16° WSW visible
22 Mar ? 03:17:27 10° NE 03:20:36 24° E 03:21:58 19° SE visible
22 Mar ? 04:51:46 10° N 04:55:13 34° WNW 04:57:32 17° WSW visible
23 Mar ? 03:10:47 10° NE 03:13:42 21° E 03:15:14 16° SE visible
23 Mar ? 04:44:52 10° N 04:48:25 39° WNW 04:50:47 18° SW visible
24 Mar ? 03:04:10 10° NE 03:06:47 18° E 03:08:29 14° ESE visible
24 Mar ? 04:37:57 10° N 04:41:36 46° WNW 04:44:02 19° SW visible
